User: anonymous   Login
Location: Unspecified
(0.0000°N, 0.0000°E)
Time: 06:39:51
(UTC+00:00)
Language:

MERIDIAN 7 - Orbit

View from above orbital plane
View from above orbital plane
View from above satellite
View from above satellite

Ground track
Ground track

The orbit data is extracted from the following two-line orbital elements,

1 40296U 14069A   19081.82800954 +.00000312 +00000-0 +00000-0 0  9992
2 40296 062.8706 172.2905 6791174 274.1835 034.4715 02.00614895032209
Epoch (UTC): 22 March 2019 19:52:20
Eccentricity: 0.6791174
inclination: 62.8706°
perigee height: 2143 km
apogee height: 38212 km
right ascension of ascending node: 172.2905°
argument of perigee: 274.1835°
revolutions per day: 2.00614895
mean anomaly at epoch: 34.4715°
orbit number at epoch: 3220

The dashed part of the orbit path shows where the satellite is in the earth's shadow,  

DLR